Flag for U.S.A. Weather past 2 weeks in Davenport, Iowa, U.S.A.

Now
65 °F

More clouds than sun.


Feels Like: 65 °F
Forecast: 58 / 78 °F
Wind: 16 mph from Northwest

Location: Davenport Municipal Airport

Current Time: May 27, 2015 at 10:15:11 AM

Latest Report: May 27, 2015 at 9:52 AM


Visibility: 10 mi

Pressure: 30.00 "Hg

Humidity: 78%

Dew point: 58 °F

Location of DavenportLocation

Historic Weather in Davenport — Graph

°F

Davenport temperature yesterday

Maximum temperature yesterday: 74 °F (at 12:52 PM)
Minimum temperature yesterday: 64 °F (at 10:00 AM)
Average temperature yesterday: 69 °F

Past Weeks' High & Low Weather Summary

 TemperatureHumidityPressure
High82 °F (May 16, 2:52 PM)97% (May 15, 6:52 AM)30.46 "Hg (May 15, 6:52 AM)
Low39 °F (May 13, 3:52 AM)18% (May 22, 2:52 PM)29.71 "Hg (May 25, 3:52 AM)
Average62 °F66%30.07 "Hg
* Reported May 12 8:52 AM — May 27 8:52 AM, Davenport, Weather by CustomWeather, © 2015

Note: Actual official high and low records may vary slightly from our data, if they occured in-between our weather recording intervals... More about our weather records

Advertising

Davenport weather history for previous 24 hours

 ConditionsComfort  
Time TempWeatherWind HumidityBarometerVisibility
8:52 AM
Wed, May 27
65 °FPassing clouds.13 mph81%29.98 "Hg10 mi
7:52 AM62 °FMore clouds than sun.12 mph90%29.97 "Hg8 mi
6:52 AM62 °FOvercast.12 mph90%29.94 "Hg7 mi
5:52 AM62 °FOvercast.12 mph86%29.93 "Hg9 mi
4:52 AM62 °FLow clouds.13 mph90%29.90 "Hg10 mi
3:52 AM61 °FClear.10 mph90%29.88 "Hg10 mi
2:52 AM62 °FClear.12 mph90%29.85 "Hg10 mi
1:52 AM63 °FClear.13 mph87%29.85 "Hg10 mi
12:52 AM64 °FClear.9 mph87%29.84 "Hg10 mi
12:00 AM64 °FPassing clouds.8 mph87%29.86 "Hg10 mi
10:52 PM
Tue, May 26
65 °FClear.8 mph85%29.83 "Hg10 mi
9:52 PM66 °FClear.9 mph81%29.82 "Hg10 mi
8:52 PM67 °FMore clouds than sun.7 mph81%29.80 "Hg10 mi
7:52 PM69 °FPartly sunny.6 mph76%29.78 "Hg10 mi
6:52 PM73 °FPassing clouds.15 mph64%29.77 "Hg10 mi
5:52 PM73 °FSunny.22 mph64%29.77 "Hg10 mi
4:52 PM73 °FScattered clouds.29 mph62%29.77 "Hg10 mi
3:52 PM72 °FPartly sunny.24 mph66%29.76 "Hg10 mi
2:59 PM71 °FMostly cloudy.26 mph68%29.76 "Hg10 mi
1:52 PM73 °FPartly sunny.30 mph66%29.72 "Hg10 mi
12:52 PM74 °FBroken clouds.22 mph67%29.71 "Hg10 mi
11:52 AM69 °FBroken clouds.15 mph81%29.73 "Hg10 mi
10:52 AM67 °FSunny.12 mph87%29.74 "Hg10 mi
10:00 AM64 °FRain. Fog.9 mph94%29.77 "Hg3 mi
Weather by CustomWeather, © 2015

See weather overviewHow to use our weather pages